Showing default

HULIANWANG DIGUI-74, 65306

Orbit data source: Space-Track

HULIANWANG DIGUI-74, 65306 is a payload satellite owned by Zhongguo Xingwang (CN) in LEO that was launched on Mon, 25 Aug 2025 UTC via a CHANG ZHENG 8A launch vehicle from the Wenchang Satellite Launch Center (WSC). Payload-class satellites include a variety of spacecraft equipped with specific instruments for various scientific and technological missions. These include communications satellites like Starlink; space stations such as the ISS; scientific satellites like the Hubble; Earth observation satellites from companies like Planet Labs, Umbra, and HawkEye 360; GPS; miniature CubeSats for education and research; and military/defense satellites.

Loading next visibility...
Identifier
65306, 2025-187B
Orbit
LEO
Country
Flag of CNCN / PRC
Related business
Manufacturer
SECM
Mission
Operational Civil Communications
Bus & Motor
XINGWANG S, Unknown motor
Mass
~800 kg wet, ~800 kg dry
Launch date (UTC)
2025-08-25 (10 months ago)
Launch vehicle
CHANG ZHENG 8A
Launch site
Wenchang Satellite Launch Center (WSC)
Object type
Payload
Rocket body
Debris
Shape & HBR
Box + 2 Pan, 1.1 m
Radar Cross Section
5.935 m², Large (>1 m²)

Expand to show TLE details & history
Last TLE update: 10 hours ago

TLE from 10 hours ago
0 HULIANWANG DIGUI-74
1 65306U 25187B   26171.42854492 -.00000102  00000-0  47854-4 0  9994
2 65306  50.0071 194.2089 0000416 208.8485 151.2365 13.29322516 40139
Epoch: 2026-06-20T10:17Z
TLE epoch observation values (Epoch: 2026-06-20T10:17:06.281Z)
Latitude
0.00006°
Longitude
131.28947°
Altitude
1,150.101 km
Speed
7.279 km/s
True Right ascension
12h 56m 50s
True Declination
0° 00' 00"
Sunlit
Object was in daylight at epoch
Visualization orbit readout
Latitude
Unknown
Longitude
Unknown
Altitude
Unknown
Speed
Unknown
Apparent Right ascension
Unknown
Apparent Declination
Unknown
Sunlit
N/A
Visualization observer readout
Local Sidereal Time
07:22:56
Azimuth
Unknown
Elevation
Unknown
Doppler factor
Unknown
Orbital elements
Apogee altitude
1,150.337 km
Perigee altitude
1,149.711 km
Semi-major axis
7,528.161 km
Eccentricity
0.00004
Inclination
50.0071°
RAAN
194.2089°
Arg. of periapsis
208.8485°
True anomaly
151.23879°
Mean anomaly
151.2365°
Eccentric anomaly
151.23765°
Mean motion
3.32284 °/min
Orbital period
108.34 mins
BSTAR
0.000047854
Loading maneuver chart data...
Computing Atmospheric mass density...
Loading historical data...
Loading historical data...
Loading historical data...
Loading historical data...
Loading historical data...
Loading historical data...
Loading historical data...

Documentation

Showing up to 5 results
|